When you browse on this site, cookies collect data to enhance your experience and personalize the content and advertising you see.
Visit our Privacy Policy to learn more. By continuing to use the site, you agree to this use of cookies and data.
  • Em Portugal
  • Lista de países
  • Para 7 dias
  • Temperatura da água
  • Mapas de satélite
  • Mapa do tempo
  • Widgets de tempo
  • user-avatar
    Iniciar Sessão

    Previsão horária em Sudzioka

    Hoje, 19 Fevereiro, Terça-feira

    Tempo Temperatura Precipitação Vento Pressão Humidade
    00:00 +7°C° 0 mm 1 m/s 768 mmHg 58%
    01:00 +7°C° 0 mm 1 m/s 767 mmHg 56%
    02:00 +7°C° 0 mm 1 m/s 767 mmHg 55%
    03:00 +7°C° 0 mm 1 m/s 767 mmHg 53%
    04:00 +8°C° 0 mm 1 m/s 767 mmHg 54%
    05:00 +8°C° 0 mm 1 m/s 767 mmHg 54%
    06:00 +8°C° 0 mm 1 m/s 767 mmHg 54%
    07:00 +9°C° 0 mm 1 m/s 767 mmHg 56%
    08:00 +11°C° 0 mm 1 m/s 767 mmHg 57%
    09:00 +12°C° 0 mm 1 m/s 767 mmHg 61%
    10:00 +12°C° 0.6 mm 1 m/s 766 mmHg 68%
    11:00 +12°C° 0.6 mm 1 m/s 766 mmHg 75%
    12:00 +12°C° 0.6 mm 1 m/s 765 mmHg 83%
    13:00 +12°C° 1.5 mm 2 m/s 764 mmHg 86%
    14:00 +10°C° 1.5 mm 2 m/s 763 mmHg 89%
    15:00 +10°C° 0 mm 2 m/s 762 mmHg 91%
    16:00 +10°C° 1.5 mm 2 m/s 762 mmHg 91%
    17:00 +10°C° 1.5 mm 2 m/s 761 mmHg 92%
    18:00 +10°C° 1.5 mm 2 m/s 760 mmHg 93%
    19:00 +10°C° 3.5 mm 2 m/s 760 mmHg 93%
    20:00 +12°C° 3.5 mm 2 m/s 759 mmHg 92%
    21:00 +11°C° 3.5 mm 3 m/s 758 mmHg 92%
    22:00 +13°C° 0.5 mm 2 m/s 758 mmHg 92%
    23:00 +13°C° 0.5 mm 2 m/s 758 mmHg 92%

    Amanhã, 20 Fevereiro, Quarta-feira

    Tempo Temperatura Precipitação Vento Pressão Humidade
    00:00 +14°C° 0.5 mm 2 m/s 757 mmHg 92%
    01:00 +13°C° 0 mm 3 m/s 757 mmHg 92%
    02:00 +13°C° 0 mm 3 m/s 757 mmHg 92%
    03:00 +13°C° 0 mm 4 m/s 757 mmHg 92%
    04:00 +12°C° 0 mm 4 m/s 757 mmHg 89%
    05:00 +12°C° 0 mm 4 m/s 757 mmHg 87%
    06:00 +11°C° 0 mm 4 m/s 757 mmHg 84%
    07:00 +13°C° 0 mm 4 m/s 757 mmHg 79%
    08:00 +14°C° 0 mm 4 m/s 757 mmHg 73%
    09:00 +17°C° 0 mm 4 m/s 757 mmHg 68%
    10:00 +18°C° 0 mm 4 m/s 757 mmHg 59%
    11:00 +20°C° 0 mm 5 m/s 757 mmHg 51%
    12:00 +21°C° 0 mm 5 m/s 757 mmHg 42%
    13:00 +21°C° 0 mm 5 m/s 757 mmHg 42%
    14:00 +20°C° 0 mm 6 m/s 757 mmHg 43%
    15:00 +20°C° 0 mm 6 m/s 757 mmHg 43%
    16:00 +17°C° 0 mm 6 m/s 757 mmHg 49%
    17:00 +15°C° 0 mm 6 m/s 758 mmHg 54%
    18:00 +11°C° 0 mm 6 m/s 758 mmHg 60%
    19:00 +10°C° 0 mm 6 m/s 758 mmHg 61%
    20:00 +9°C° 0 mm 6 m/s 759 mmHg 62%
    21:00 +8°C° 0 mm 6 m/s 759 mmHg 63%
    22:00 +8°C° 0 mm 6 m/s 759 mmHg 64%
    23:00 +7°C° 0 mm 6 m/s 759 mmHg 65%

    Depois de amanhã, 21 Fevereiro, Quinta-feira

    Tempo Temperatura Precipitação Vento Pressão Humidade
    00:00 +7°C° 0 mm 6 m/s 760 mmHg 66%
    01:00 +6°C° 0 mm 5 m/s 760 mmHg 65%
    02:00 +6°C° 0 mm 5 m/s 760 mmHg 65%
    03:00 +6°C° 0 mm 4 m/s 760 mmHg 64%
    04:00 +5°C° 0 mm 4 m/s 761 mmHg 64%
    05:00 +5°C° 0 mm 3 m/s 761 mmHg 64%
    06:00 +4°C° 0 mm 3 m/s 761 mmHg 64%
    07:00 +7°C° 0 mm 3 m/s 762 mmHg 58%
    08:00 +9°C° 0 mm 2 m/s 762 mmHg 52%
    09:00 +13°C° 0 mm 2 m/s 762 mmHg 46%
    10:00 +13°C° 0 mm 2 m/s 762 mmHg 47%
    11:00 +13°C° 0 mm 3 m/s 762 mmHg 48%
    12:00 +14°C° 0 mm 4 m/s 762 mmHg 49%
    13:00 +13°C° 0 mm 4 m/s 761 mmHg 51%
    14:00 +13°C° 0 mm 3 m/s 761 mmHg 53%
    15:00 +12°C° 0 mm 3 m/s 761 mmHg 56%
    16:00 +11°C° 0 mm 3 m/s 762 mmHg 60%
    17:00 +10°C° 0 mm 2 m/s 762 mmHg 64%
    18:00 +10°C° 0 mm 1 m/s 763 mmHg 68%
    19:00 +8°C° 0 mm 2 m/s 763 mmHg 71%
    20:00 +8°C° 0 mm 2 m/s 764 mmHg 74%
    21:00 +7°C° 0 mm 2 m/s 764 mmHg 77%
    22:00 +7°C° 0 mm 2 m/s 764 mmHg 80%
    23:00 +7°C° 0 mm 2 m/s 764 mmHg 82%

    22 Fevereiro, Sexta-feira

    Tempo Temperatura Precipitação Vento Pressão Humidade
    00:00 +7°C° 0 mm 2 m/s 764 mmHg 84%
    01:00 +7°C° 0 mm 2 m/s 764 mmHg 85%
    02:00 +7°C° 0 mm 2 m/s 764 mmHg 86%
    03:00 +7°C° 0 mm 2 m/s 764 mmHg 86%
    04:00 +6°C° 0 mm 2 m/s 764 mmHg 86%
    05:00 +6°C° 0 mm 2 m/s 764 mmHg 85%
    06:00 +5°C° 0 mm 3 m/s 765 mmHg 84%
    07:00 +8°C° 0 mm 2 m/s 765 mmHg 78%
    08:00 +9°C° 0 mm 2 m/s 765 mmHg 71%
    09:00 +12°C° 0 mm 2 m/s 765 mmHg 65%
    10:00 +13°C° 0 mm 2 m/s 764 mmHg 62%
    11:00 +14°C° 0 mm 2 m/s 764 mmHg 60%
    12:00 +15°C° 0 mm 2 m/s 763 mmHg 57%
    13:00 +15°C° 0 mm 2 m/s 762 mmHg 58%
    14:00 +15°C° 0 mm 2 m/s 762 mmHg 59%
    15:00 +15°C° 0 mm 2 m/s 761 mmHg 60%
    16:00 +14°C° 0 mm 1 m/s 761 mmHg 66%
    17:00 +12°C° 0 mm 1 m/s 760 mmHg 72%
    18:00 +11°C° 0 mm 1 m/s 760 mmHg 77%
    19:00 +11°C° 0 mm 1 m/s 760 mmHg 78%
    20:00 +11°C° 0 mm 1 m/s 760 mmHg 79%
    21:00 +11°C° 0 mm 1 m/s 761 mmHg 79%
    22:00 +11°C° 1.2 mm 1 m/s 760 mmHg 84%
    23:00 +10°C° 1.2 mm 1 m/s 759 mmHg 89%

    23 Fevereiro, Sábado

    Tempo Temperatura Precipitação Vento Pressão Humidade
    00:00 +10°C° 1.2 mm 1 m/s 759 mmHg 93%
    01:00 +10°C° 1.6 mm 1 m/s 758 mmHg 94%
    02:00 +10°C° 1.6 mm 1 m/s 756 mmHg 94%
    03:00 +10°C° 1.6 mm 1 m/s 755 mmHg 95%
    04:00 +8°C° 2.2 mm 2 m/s 754 mmHg 93%
    05:00 +8°C° 2.2 mm 3 m/s 753 mmHg 92%
    06:00 +8°C° 2.2 mm 3 m/s 752 mmHg 90%
    07:00 +9°C° 0.6 mm 3 m/s 752 mmHg 88%
    08:00 +9°C° 0.6 mm 2 m/s 752 mmHg 85%
    09:00 +11°C° 0.6 mm 1 m/s 752 mmHg 83%
    10:00 +12°C° 0.1 mm 2 m/s 753 mmHg 79%
    11:00 +13°C° 0.1 mm 2 m/s 753 mmHg 75%
    12:00 +13°C° 0.1 mm 3 m/s 753 mmHg 71%
    13:00 +12°C° 1 mm 3 m/s 753 mmHg 77%
    14:00 +11°C° 1 mm 3 m/s 753 mmHg 83%
    15:00 +10°C° 1 mm 3 m/s 753 mmHg 88%
    16:00 +10°C° 2.6 mm 3 m/s 754 mmHg 89%
    17:00 +8°C° 2.6 mm 4 m/s 754 mmHg 89%
    18:00 +7°C° 2.6 mm 4 m/s 755 mmHg 90%
    19:00 +8°C° 2.2 mm 3 m/s 756 mmHg 88%
    20:00 +8°C° 2.2 mm 3 m/s 757 mmHg 87%
    21:00 +7°C° 2.2 mm 2 m/s 758 mmHg 85%
    22:00 +7°C° 0.4 mm 2 m/s 759 mmHg 84%
    23:00 +7°C° 0.4 mm 2 m/s 759 mmHg 82%

    24 Fevereiro, Domingo

    Tempo Temperatura Precipitação Vento Pressão Humidade
    00:00 +7°C° 0.4 mm 1 m/s 760 mmHg 81%
    01:00 +7°C° 0.1 mm 1 m/s 760 mmHg 80%
    02:00 +7°C° 0.1 mm 1 m/s 761 mmHg 79%
    03:00 +6°C° 0.1 mm 2 m/s 761 mmHg 78%
    04:00 +6°C° 0 mm 2 m/s 762 mmHg 78%
    05:00 +5°C° 0 mm 2 m/s 762 mmHg 78%
    06:00 +5°C° 0 mm 2 m/s 763 mmHg 78%
    07:00 +6°C° 0 mm 2 m/s 763 mmHg 74%
    08:00 +7°C° 0 mm 2 m/s 764 mmHg 71%
    09:00 +9°C° 0 mm 2 m/s 765 mmHg 67%
    10:00 +11°C° 0 mm 1 m/s 764 mmHg 65%
    11:00 +11°C° 0 mm 1 m/s 764 mmHg 63%
    12:00 +12°C° 0 mm 1 m/s 764 mmHg 62%
    13:00 +12°C° 0 mm 2 m/s 764 mmHg 62%
    14:00 +12°C° 0 mm 2 m/s 763 mmHg 63%
    15:00 +12°C° 0 mm 2 m/s 763 mmHg 64%
    16:00 +10°C° 0 mm 2 m/s 764 mmHg 69%
    17:00 +9°C° 0 mm 2 m/s 764 mmHg 73%
    18:00 +8°C° 0 mm 2 m/s 765 mmHg 78%
    19:00 +7°C° 0 mm 2 m/s 765 mmHg 79%
    20:00 +8°C° 0 mm 1 m/s 765 mmHg 81%
    21:00 +7°C° 0 mm 1 m/s 766 mmHg 82%
    22:00 +7°C° 0 mm 1 m/s 766 mmHg 82%
    23:00 +7°C° 0 mm 1 m/s 766 mmHg 82%
    Mostrar mais